Regional Weather Roundup
Issued by NWS

Home | Current Version | Previous Version | Text Only | Print | Product List | Glossary Off
Versions: 1 2 3 4 5 6 7 8 9 10 11 12 13 14 15 16 17 18 19 20 21 22 23 24 25 26 27

000
ASUS45 KBOI 160210
RWRID

IDAHO REGIONAL WEATHER ROUNDUP
NATIONAL WEATHER SERVICE BOISE ID
700 PM MST FRI DEC 15 2017

NOTE: "FAIR" INDICATES FEW OR NO CLOUDS BELOW 12000 FEET
WITH NO SIGNIFICANT WEATHER AND/OR OBSTRUCTIONS TO VISIBILITY

IDZ012-014-160300-
SOUTHWEST IDAHO


CITY           SKY/WX    TMP DP  RH WIND       PRES   REMARKS
BOISE          CLOUDY    28  22  78 N7        30.14F WCI  21
CALDWELL       CLOUDY    29  26  89 W9        30.18F WCI  20
MOUNTAIN HOME  CLOUDY    27  27 100 W9        30.12S WCI  18
$$

IDZ016-017-160300-
SOUTHCENTRAL IDAHO


CITY           SKY/WX    TMP DP  RH WIND       PRES   REMARKS
BURLEY         CLOUDY    31  24  75 CALM      30.02F
JEROME         CLOUDY    28  25  88 W7        30.06S WCI  21
TWIN FALLS     CLOUDY    28  27  96 W5        30.05S FOG     WCI  23
$$

IDZ019>023-160300-
SOUTHEAST IDAHO


CITY           SKY/WX    TMP DP  RH WIND       PRES   REMARKS
IDAHO FALLS    CLOUDY    22  21  96 CALM      30.03F
POCATELLO      CLOUDY    21  19  92 NW5       30.04F WCI  15
REXBURG        CLOUDY    24  22  91 CALM      30.02F
$$

IDZ006-010-011-018-031-032-160300-
CENTRAL IDAHO MOUNTAINS


CITY           SKY/WX    TMP DP  RH WIND       PRES   REMARKS
MCCALL         LGT SNOW  23  21  92 CALM      30.00F FOG
HAILEY         MOCLDY    28  25  86 SE5       30.02F WCI  23
STANLEY          N/A     20  16  84 CALM      29.97F
SALMON         CLOUDY    24  20  84 CALM      30.03S
CHALLIS        MOCLDY    21  17  84 CALM      29.97S
$$

IDZ002-004-006-007-026-160300-
NORTHERN IDAHO


CITY           SKY/WX    TMP DP  RH WIND       PRES   REMARKS
LEWISTON       LGT SNOW  30  29  96 CALM      30.14S FOG
LOWELL           N/A     32  32 100 CALM      30.12F
COEUR D`ALENE  CLOUDY    26  24  92 S3        30.09S
MULLAN PASS    FOG       20  19  96 VRB5      29.90R VSB 3/4 WCI  13
$$




USA.gov is the U.S. government's official web portal to all federal, state and local government web resources and services.